Location: Igon
(43.1667°N, 0.2333°W)
Time: 13:32:46
(UTC+00:00)

SKYMED 3 - Pass Details

Date: 14 April 2021
Orbit: 621 x 624 km, 97.9° (Epoch: 15 May)

Event Time Altitude Azimuth Distance (km) Brightness Sun altitude
Rises 04:34:45 0° 145° (SE) 2,893 8.2 -8.8°
Reaches altitude 10° 04:37:03 10° 137° (SE) 1,991 7.5 -8.4°
Maximum altitude 04:41:02 37° 70° (ENE) 974 6.4 -7.7°
Drops below altitude 10° 04:45:03 10° 3° (N) 2,004 7.5 -7.0°
Sets 04:47:21 0° 356° (N) 2,915 8.2 -6.6°
